Weather History for Saginaw, MI

Change the Weather History Date:

Friday, August 16, 2013

  Actual Average Record
Temperature  
Mean Temperature 66 °F 69 °F  
Max Temperature 80 °F 80 °F 87 °F (1998)
Min Temperature 51 °F 59 °F 46 °F (2004)
Degree Days  
Heating Degree Days 0    
Month to date heating degree days 10  
Since 1 June heating degree days 74  
Since 1 July heating degree days 21  
Cooling Degree Days 1    
Month to date cooling degree days 40  
Year to date cooling degree days 484  
Since 1 June cooling degree days 410  
Growing Degree Days 16 (Base 50)    
Moisture  
Dew Point 51 °F    
Average Humidity 61    
Maximum Humidity 89    
Minimum Humidity 32    
Precipitation  
Precipitation 0.00 in 0.11 in 0.76 in (1997)
Month to date precipitation 1.08 1.66  
Year to date precipitation 23.05 18.87  
Snow  
Snow 0.00 in - - ()
Month to date snowfall 0.0  
Since 1 June snowfall 0.0  
Since 1 July snowfall 0.0  
Snow Depth 0.00 in    
Sea Level Pressure  
Sea Level Pressure 30.17 in    
Wind  
Wind Speed 4 mph (ESE)    
Max Wind Speed 12 mph    
Max Gust Speed 14 mph    
Visibility 10 miles    
Events      
T = Trace of Precipitation, MM = Missing Value Source: NWS Daily Summary

Daily Weather History Graph

Daily Weather History Graph

Search for Another Location

Airport:

Trip Planner

Search our weather history database for the weather conditions in past years. The results will help you decide how hot, cold, wet, or windy it might be!

Date:

Astronomy

Aug. 16, 2013 Rise Set
Actual Time 6:42 AM EDT 8:37 PM EDT
Civil Twilight 6:11 AM EDT 9:08 PM EDT
Nautical Twilight 5:33 AM EDT 9:46 PM EDT
Astronomical Twilight 4:52 AM EDT 10:26 PM EDT
Moon 4:59 PM EDT (8/16) 1:40 AM EDT (8/16)
Length of Visible Light 14h 56m
Length of Day
13h 55m
Waxing Gibbous, 74% of the Moon is Illuminated
Aug 16
Waxing Gibbous
Aug 20
Full
Aug 28
Last Quarter
Sep 5
New
Sep 12
First Quarter

Hourly Weather History & Observations

Time (EDT) Temp. Dew Point Humidity Pressure Visibility Wind Dir Wind Speed Gust Speed Precip Events Conditions
1:53 AM 54.0 °F 50.0 °F 86% 30.12 in 10.0 mi SW 6.9 mph - N/A   Clear
2:53 AM 55.9 °F 51.1 °F 84% 30.13 in 10.0 mi NW 6.9 mph - N/A   Clear
3:53 AM 55.0 °F 48.9 °F 80% 30.14 in 10.0 mi NNW 4.6 mph - N/A   Clear
4:53 AM 54.0 °F 48.0 °F 80% 30.14 in 10.0 mi Calm Calm - N/A   Clear
5:53 AM 51.1 °F 48.0 °F 89% 30.15 in 10.0 mi WNW 4.6 mph - N/A   Clear
6:53 AM 53.1 °F 48.9 °F 86% 30.16 in 10.0 mi Calm Calm - N/A   Clear
7:53 AM 55.0 °F 51.1 °F 86% 30.17 in 10.0 mi Calm Calm - N/A   Clear
8:53 AM 61.0 °F 52.0 °F 72% 30.19 in 10.0 mi Calm Calm - N/A   Clear
9:53 AM 68.0 °F 53.1 °F 59% 30.19 in 10.0 mi North 3.5 mph - N/A   Clear
10:53 AM 72.0 °F 52.0 °F 49% 30.19 in 10.0 mi East 3.5 mph - N/A   Clear
11:53 AM 73.9 °F 51.1 °F 45% 30.19 in 10.0 mi Variable 6.9 mph - N/A   Clear
12:53 PM 75.0 °F 50.0 °F 41% 30.19 in 10.0 mi Variable 3.5 mph - N/A   Clear
1:53 PM 78.1 °F 48.0 °F 35% 30.18 in 10.0 mi Variable 4.6 mph - N/A   Clear
2:53 PM 79.0 °F 48.9 °F 35% 30.18 in 10.0 mi SE 5.8 mph - N/A   Clear
3:53 PM 80.1 °F 52.0 °F 38% 30.17 in 10.0 mi NE 6.9 mph - N/A   Partly Cloudy
4:53 PM 80.1 °F 51.1 °F 36% 30.17 in 10.0 mi Variable 5.8 mph - N/A   Clear
5:53 PM 79.0 °F 48.9 °F 35% 30.18 in 10.0 mi East 5.8 mph - N/A   Clear
6:53 PM 78.1 °F 46.0 °F 32% 30.18 in 10.0 mi East 4.6 mph - N/A   Clear
7:53 PM 73.9 °F 53.1 °F 48% 30.18 in 10.0 mi South 4.6 mph - N/A   Clear
8:53 PM 70.0 °F 52.0 °F 53% 30.18 in 10.0 mi South 4.6 mph - N/A   Clear
9:53 PM 64.9 °F 53.1 °F 65% 30.20 in 10.0 mi SSE 3.5 mph - N/A   Clear
10:53 PM 64.0 °F 53.1 °F 67% 30.21 in 10.0 mi Calm Calm - N/A   Clear
11:53 PM 63.0 °F 53.1 °F 70% 30.22 in 10.0 mi Calm Calm - N/A   Clear